Year,Month,Day,Hour,Minute,Value (Times are PST for temperature in C)
2020,04,15,00,00,10.90
2020,04,15,00,01,10.90
2020,04,15,00,02,10.90
2020,04,15,00,03,10.90
2020,04,15,00,04,10.90
2020,04,15,00,05,10.90
2020,04,15,00,06,10.80
2020,04,15,00,07,10.80
2020,04,15,00,08,10.80
2020,04,15,00,09,10.80
2020,04,15,00,10,10.80
2020,04,15,00,11,10.80
2020,04,15,00,12,10.80
2020,04,15,00,13,10.80
2020,04,15,00,14,10.70
2020,04,15,00,15,10.70
2020,04,15,00,16,10.70
2020,04,15,00,17,10.70
2020,04,15,00,18,10.70
2020,04,15,00,19,10.60
2020,04,15,00,20,10.60
2020,04,15,00,21,10.60
2020,04,15,00,22,10.60
2020,04,15,00,23,10.60
2020,04,15,00,24,10.50
2020,04,15,00,25,10.50
2020,04,15,00,26,10.50
2020,04,15,00,27,10.50
2020,04,15,00,28,10.50
2020,04,15,00,29,10.50
2020,04,15,00,30,10.50
2020,04,15,00,31,10.50
2020,04,15,00,32,10.50
2020,04,15,00,33,10.50
2020,04,15,00,34,10.50
2020,04,15,00,35,10.50
2020,04,15,00,36,10.40
2020,04,15,00,37,10.40
2020,04,15,00,38,10.40
2020,04,15,00,39,10.40
2020,04,15,00,40,10.40
2020,04,15,00,41,10.40
2020,04,15,00,42,10.40
2020,04,15,00,43,10.40
2020,04,15,00,44,10.40
2020,04,15,00,45,10.40
2020,04,15,00,46,10.40
2020,04,15,00,47,10.40
2020,04,15,00,48,10.40
2020,04,15,00,49,10.40
2020,04,15,00,50,10.40
2020,04,15,00,51,10.40
2020,04,15,00,52,10.40
2020,04,15,00,53,10.40
2020,04,15,00,54,10.40
2020,04,15,00,55,10.40
2020,04,15,00,56,10.40
2020,04,15,00,57,10.40
2020,04,15,00,58,10.40
2020,04,15,00,59,10.40
2020,04,15,01,00,10.40
2020,04,15,01,01,10.40
2020,04,15,01,02,10.40
2020,04,15,01,03,10.50
2020,04,15,01,04,10.50
2020,04,15,01,05,10.50
2020,04,15,01,06,10.60
2020,04,15,01,07,10.60
2020,04,15,01,08,10.60
2020,04,15,01,09,10.60
2020,04,15,01,10,10.60
2020,04,15,01,11,10.60
2020,04,15,01,12,10.60
2020,04,15,01,13,10.60
2020,04,15,01,14,10.60
2020,04,15,01,15,10.60
2020,04,15,01,16,10.60
2020,04,15,01,17,10.60
2020,04,15,01,18,10.60
2020,04,15,01,19,10.60
2020,04,15,01,20,10.60
2020,04,15,01,21,10.60
2020,04,15,01,22,10.60
2020,04,15,01,23,10.60
2020,04,15,01,24,10.60
2020,04,15,01,25,10.60
2020,04,15,01,26,10.60
2020,04,15,01,27,10.60
2020,04,15,01,28,10.50
2020,04,15,01,29,10.50
2020,04,15,01,30,10.50
2020,04,15,01,31,10.50
2020,04,15,01,32,10.50
2020,04,15,01,33,10.50
2020,04,15,01,34,10.50
2020,04,15,01,35,10.40
2020,04,15,01,36,10.40
2020,04,15,01,37,10.40
2020,04,15,01,38,10.40
2020,04,15,01,39,10.30
2020,04,15,01,40,10.30
2020,04,15,01,41,10.20
2020,04,15,01,42,10.20
2020,04,15,01,43,10.10
2020,04,15,01,44,10.10
2020,04,15,01,45,10.10
2020,04,15,01,46,10.00
2020,04,15,01,47,10.00
2020,04,15,01,48,9.90
2020,04,15,01,49,9.90
2020,04,15,01,50,9.80
2020,04,15,01,51,9.80
2020,04,15,01,52,9.80
2020,04,15,01,53,9.80
2020,04,15,01,54,9.80
2020,04,15,01,55,9.70
2020,04,15,01,56,9.70
2020,04,15,01,57,9.70
2020,04,15,01,58,9.70
2020,04,15,01,59,9.70
2020,04,15,02,00,9.70
2020,04,15,02,01,9.70
2020,04,15,02,02,9.70
2020,04,15,02,03,9.70
2020,04,15,02,04,9.60
2020,04,15,02,05,9.60
2020,04,15,02,06,9.60
2020,04,15,02,07,9.60
2020,04,15,02,08,9.60
2020,04,15,02,09,9.60
2020,04,15,02,10,9.60
2020,04,15,02,11,9.50
2020,04,15,02,12,9.50
2020,04,15,02,13,9.50
2020,04,15,02,14,9.50
2020,04,15,02,15,9.40
2020,04,15,02,16,9.40
2020,04,15,02,17,9.40
2020,04,15,02,18,9.40
2020,04,15,02,19,9.40
2020,04,15,02,20,9.40
2020,04,15,02,21,9.40
2020,04,15,02,22,9.40
2020,04,15,02,23,9.40
2020,04,15,02,24,9.40
2020,04,15,02,25,9.40
2020,04,15,02,26,9.40
2020,04,15,02,27,9.40
2020,04,15,02,28,9.40
2020,04,15,02,29,9.40
2020,04,15,02,30,9.40
2020,04,15,02,31,9.40
2020,04,15,02,32,9.40
2020,04,15,02,33,9.40
2020,04,15,02,34,9.30
2020,04,15,02,35,9.30
2020,04,15,02,36,9.30
2020,04,15,02,37,9.30
2020,04,15,02,38,9.30
2020,04,15,02,39,9.20
2020,04,15,02,40,9.20
2020,04,15,02,41,9.20
2020,04,15,02,42,9.20
2020,04,15,02,43,9.20
2020,04,15,02,44,9.20
2020,04,15,02,45,9.20
2020,04,15,02,46,9.20
2020,04,15,02,47,9.20
2020,04,15,02,48,9.20
2020,04,15,02,49,9.10
2020,04,15,02,50,9.10
2020,04,15,02,51,9.10
2020,04,15,02,52,9.10
2020,04,15,02,53,9.10
2020,04,15,02,54,9.10
2020,04,15,02,55,9.00
2020,04,15,02,56,9.00
2020,04,15,02,57,9.00
2020,04,15,02,58,9.00
2020,04,15,02,59,8.90
2020,04,15,03,00,8.90
2020,04,15,03,01,8.90
2020,04,15,03,02,8.90
2020,04,15,03,03,8.90
2020,04,15,03,04,8.90
2020,04,15,03,05,8.90
2020,04,15,03,06,8.90
2020,04,15,03,07,8.90
2020,04,15,03,08,8.90
2020,04,15,03,09,8.90
2020,04,15,03,10,8.90
2020,04,15,03,11,8.90
2020,04,15,03,12,8.90
2020,04,15,03,13,8.90
2020,04,15,03,14,8.80
2020,04,15,03,15,8.80
2020,04,15,03,16,8.80
2020,04,15,03,17,8.80
2020,04,15,03,18,8.80
2020,04,15,03,19,8.80
2020,04,15,03,20,8.80
2020,04,15,03,21,8.80
2020,04,15,03,22,8.70
2020,04,15,03,23,8.70
2020,04,15,03,24,8.70
2020,04,15,03,25,8.70
2020,04,15,03,26,8.70
2020,04,15,03,27,8.70
2020,04,15,03,28,8.70
2020,04,15,03,29,8.70
2020,04,15,03,30,8.70
2020,04,15,03,31,8.70
2020,04,15,03,32,8.80
2020,04,15,03,33,8.80
2020,04,15,03,34,8.80
2020,04,15,03,35,8.80
2020,04,15,03,36,8.80
2020,04,15,03,37,8.80
2020,04,15,03,38,8.80
2020,04,15,03,39,8.80
2020,04,15,03,40,8.80
2020,04,15,03,41,8.80
2020,04,15,03,42,8.80
2020,04,15,03,43,8.80
2020,04,15,03,44,8.80
2020,04,15,03,45,8.80
2020,04,15,03,46,8.80
2020,04,15,03,47,8.80
2020,04,15,03,48,8.80
2020,04,15,03,49,8.80
2020,04,15,03,50,8.80
2020,04,15,03,51,8.80
2020,04,15,03,52,8.80
2020,04,15,03,53,8.80
2020,04,15,03,54,8.80
2020,04,15,03,55,8.80
2020,04,15,03,56,8.80
2020,04,15,03,57,8.80
2020,04,15,03,58,8.80
2020,04,15,03,59,8.80
2020,04,15,04,00,8.80
2020,04,15,04,01,8.80
2020,04,15,04,02,8.70
2020,04,15,04,03,8.70
2020,04,15,04,04,8.70
2020,04,15,04,05,8.70
2020,04,15,04,06,8.70
2020,04,15,04,07,8.70
2020,04,15,04,08,8.80
2020,04,15,04,09,8.80
2020,04,15,04,10,8.80
2020,04,15,04,11,8.80
2020,04,15,04,12,8.80
2020,04,15,04,13,8.80
2020,04,15,04,14,8.80
2020,04,15,04,15,8.90
2020,04,15,04,16,8.90
2020,04,15,04,17,8.90
2020,04,15,04,18,8.90
2020,04,15,04,19,8.90
2020,04,15,04,20,8.90
2020,04,15,04,21,8.90
2020,04,15,04,22,8.90
2020,04,15,04,23,8.90
2020,04,15,04,24,8.90
2020,04,15,04,25,8.90
2020,04,15,04,26,8.80
2020,04,15,04,27,8.80
2020,04,15,04,28,8.80
2020,04,15,04,29,8.80
2020,04,15,04,30,8.80
2020,04,15,04,31,8.70
2020,04,15,04,32,8.70
2020,04,15,04,33,8.70
2020,04,15,04,34,8.70
2020,04,15,04,35,8.60
2020,04,15,04,36,8.60
2020,04,15,04,37,8.60
2020,04,15,04,38,8.50
2020,04,15,04,39,8.50
2020,04,15,04,40,8.50
2020,04,15,04,41,8.50
2020,04,15,04,42,8.40
2020,04,15,04,43,8.40
2020,04,15,04,44,8.40
2020,04,15,04,45,8.30
2020,04,15,04,46,8.30
2020,04,15,04,47,8.30
2020,04,15,04,48,8.30
2020,04,15,04,49,8.20
2020,04,15,04,50,8.20
2020,04,15,04,51,8.20
2020,04,15,04,52,8.10
2020,04,15,04,53,8.10
2020,04,15,04,54,8.10
2020,04,15,04,55,8.00
2020,04,15,04,56,8.00
2020,04,15,04,57,8.00
2020,04,15,04,58,7.90
2020,04,15,04,59,7.90
2020,04,15,05,00,7.90
2020,04,15,05,01,7.90
2020,04,15,05,02,7.90
2020,04,15,05,03,7.90
2020,04,15,05,04,7.90
2020,04,15,05,05,7.80
2020,04,15,05,06,7.80
2020,04,15,05,07,7.80
2020,04,15,05,08,7.80
2020,04,15,05,09,7.80
2020,04,15,05,10,7.80
2020,04,15,05,11,7.80
2020,04,15,05,12,7.80
2020,04,15,05,13,7.80
2020,04,15,05,14,7.80
2020,04,15,05,15,7.70
2020,04,15,05,16,7.80
2020,04,15,05,17,7.70
2020,04,15,05,18,7.70
2020,04,15,05,19,7.70
2020,04,15,05,20,7.70
2020,04,15,05,21,7.70
2020,04,15,05,22,7.80
2020,04,15,05,23,7.70
2020,04,15,05,24,7.70
2020,04,15,05,25,7.70
2020,04,15,05,26,7.70
2020,04,15,05,27,7.70
2020,04,15,05,28,7.60
2020,04,15,05,29,7.60
2020,04,15,05,30,7.60
2020,04,15,05,31,7.60
2020,04,15,05,32,7.60
2020,04,15,05,33,7.70
2020,04,15,05,34,7.70
2020,04,15,05,35,7.80
2020,04,15,05,36,7.90
2020,04,15,05,37,7.90
2020,04,15,05,38,8.00
2020,04,15,05,39,8.00
2020,04,15,05,40,8.10
2020,04,15,05,41,8.10
2020,04,15,05,42,8.10
2020,04,15,05,43,8.10
2020,04,15,05,44,8.10
2020,04,15,05,45,8.10
2020,04,15,05,46,8.10
2020,04,15,05,47,8.10
2020,04,15,05,48,8.10
2020,04,15,05,49,8.10
2020,04,15,05,50,8.10
2020,04,15,05,51,8.10
2020,04,15,05,52,8.10
2020,04,15,05,53,8.10
2020,04,15,07,28,8.70
2020,04,15,07,29,8.70
2020,04,15,07,30,8.70
2020,04,15,07,31,8.70
2020,04,15,07,32,8.70
2020,04,15,07,33,8.70
2020,04,15,07,34,8.80
2020,04,15,07,35,8.80
2020,04,15,07,36,8.80
2020,04,15,07,37,8.80
2020,04,15,07,38,8.80
2020,04,15,07,39,8.80
2020,04,15,07,40,8.80
2020,04,15,07,41,8.80
2020,04,15,07,42,8.80
2020,04,15,07,43,8.80
2020,04,15,07,44,8.90
2020,04,15,07,45,8.90
2020,04,15,07,46,8.90
2020,04,15,07,47,8.90
2020,04,15,07,48,8.90
2020,04,15,07,49,8.90
2020,04,15,07,50,8.90
2020,04,15,07,51,8.90
2020,04,15,07,52,9.00
2020,04,15,07,53,9.00
2020,04,15,07,54,9.00
2020,04,15,07,55,9.00
2020,04,15,07,56,9.00
2020,04,15,07,57,9.00
2020,04,15,07,58,9.10
2020,04,15,07,59,9.10
2020,04,15,08,00,9.10
2020,04,15,08,01,9.10
2020,04,15,08,02,9.10
2020,04,15,08,03,9.10
2020,04,15,08,04,9.20
2020,04,15,08,05,9.20
2020,04,15,08,06,9.20
2020,04,15,08,07,9.20
2020,04,15,08,08,9.20
2020,04,15,08,09,9.20
2020,04,15,08,10,9.20
2020,04,15,08,11,9.30
2020,04,15,08,12,9.30
2020,04,15,08,13,9.30
2020,04,15,08,14,9.40
2020,04,15,08,15,9.40
2020,04,15,08,16,9.40
2020,04,15,08,17,9.50
2020,04,15,08,18,9.50
2020,04,15,08,19,9.60
2020,04,15,08,20,9.60
2020,04,15,08,21,9.70
2020,04,15,08,22,9.70
2020,04,15,08,23,9.80
2020,04,15,08,24,9.80
2020,04,15,08,25,9.80
2020,04,15,08,26,9.90
2020,04,15,08,27,9.90
2020,04,15,08,28,9.90
2020,04,15,08,29,10.00
2020,04,15,08,30,10.10
2020,04,15,08,31,10.10
2020,04,15,08,32,10.20
2020,04,15,08,33,10.20
2020,04,15,08,34,10.20
2020,04,15,08,35,10.30
2020,04,15,08,36,10.30
2020,04,15,08,37,10.30
2020,04,15,08,38,10.40
2020,04,15,08,39,10.40
2020,04,15,08,40,10.40
2020,04,15,08,41,10.40
2020,04,15,08,42,10.50
2020,04,15,08,43,10.50
2020,04,15,08,44,10.60
2020,04,15,08,45,10.60
2020,04,15,08,46,10.60
2020,04,15,08,47,10.70
2020,04,15,08,48,10.70
2020,04,15,08,49,10.80
2020,04,15,08,50,10.80
2020,04,15,08,51,10.80
2020,04,15,08,52,10.90
2020,04,15,08,53,10.90
2020,04,15,08,54,11.00
2020,04,15,08,55,11.00
2020,04,15,08,56,11.10
2020,04,15,08,57,11.10
2020,04,15,08,58,11.10
2020,04,15,08,59,11.20
2020,04,15,09,00,11.20
2020,04,15,09,01,11.20
2020,04,15,09,02,11.20
2020,04,15,09,03,11.20
2020,04,15,09,04,11.30
2020,04,15,09,05,11.30
2020,04,15,09,06,11.30
2020,04,15,09,07,11.30
2020,04,15,09,08,11.40
2020,04,15,09,09,11.40
2020,04,15,09,10,11.50
2020,04,15,09,11,11.50
2020,04,15,09,12,11.50
2020,04,15,09,13,11.60
2020,04,15,09,14,11.70
2020,04,15,09,15,11.70
2020,04,15,09,16,11.70
2020,04,15,09,17,11.70
2020,04,15,09,18,11.80
2020,04,15,09,19,11.90
2020,04,15,09,20,11.90
2020,04,15,09,21,12.00
2020,04,15,09,22,12.00
2020,04,15,09,23,12.00
2020,04,15,09,24,11.90
2020,04,15,09,25,11.90
2020,04,15,09,26,11.90
2020,04,15,09,27,11.90
2020,04,15,09,28,11.80
2020,04,15,09,29,11.80
2020,04,15,09,30,11.80
2020,04,15,09,31,11.90
2020,04,15,09,32,11.90
2020,04,15,09,33,11.90
2020,04,15,09,34,11.90
2020,04,15,09,35,11.90
2020,04,15,09,36,11.90
2020,04,15,09,37,11.90
2020,04,15,09,38,11.90
2020,04,15,09,39,11.80
2020,04,15,09,40,11.80
2020,04,15,09,41,11.70
2020,04,15,09,42,11.70
2020,04,15,09,43,11.70
2020,04,15,09,44,11.70
2020,04,15,09,45,11.70
2020,04,15,09,46,11.70
2020,04,15,09,47,11.70
2020,04,15,09,48,11.70
2020,04,15,09,49,11.70
2020,04,15,09,50,11.70
2020,04,15,09,51,11.70
2020,04,15,09,52,11.70
2020,04,15,09,53,11.70
2020,04,15,09,54,11.70
2020,04,15,09,55,11.70
2020,04,15,09,56,11.70
2020,04,15,09,57,11.70
2020,04,15,09,58,11.80
2020,04,15,09,59,11.80
2020,04,15,10,00,11.80
2020,04,15,10,01,11.90
2020,04,15,10,02,11.90
2020,04,15,10,03,11.90
2020,04,15,10,04,12.00
2020,04,15,10,05,12.00
2020,04,15,10,06,12.10
2020,04,15,10,07,12.10
2020,04,15,10,08,12.10
2020,04,15,10,09,12.20
2020,04,15,10,10,12.20
2020,04,15,10,11,12.20
2020,04,15,10,12,12.20
2020,04,15,10,13,12.30
2020,04,15,10,14,12.30
2020,04,15,10,15,12.30
2020,04,15,10,16,12.30
2020,04,15,10,17,12.40
2020,04,15,10,18,12.40
2020,04,15,10,19,12.50
2020,04,15,10,20,12.60
2020,04,15,10,21,12.60
2020,04,15,10,22,12.60
2020,04,15,10,23,12.60
2020,04,15,10,24,12.60
2020,04,15,10,25,12.60
2020,04,15,10,26,12.60
2020,04,15,10,27,12.70
2020,04,15,10,28,12.70
2020,04,15,10,29,12.70
2020,04,15,10,30,12.80
2020,04,15,10,31,12.80
2020,04,15,10,32,12.80
2020,04,15,10,33,12.90
2020,04,15,10,34,12.90
2020,04,15,10,35,13.00
2020,04,15,10,36,13.10
2020,04,15,10,37,13.10
2020,04,15,10,38,13.10
2020,04,15,10,39,13.20
2020,04,15,10,40,13.20
2020,04,15,10,41,13.20
2020,04,15,10,42,13.30
2020,04,15,10,43,13.30
2020,04,15,10,44,13.30
2020,04,15,10,45,13.30
2020,04,15,10,46,13.30
2020,04,15,10,47,13.40
2020,04,15,10,48,13.40
2020,04,15,10,49,13.40
2020,04,15,10,50,13.40
2020,04,15,10,51,13.40
2020,04,15,10,52,13.40
2020,04,15,10,53,13.50
2020,04,15,10,54,13.50
2020,04,15,10,55,13.50
2020,04,15,10,56,13.50
2020,04,15,10,57,13.50
2020,04,15,10,58,13.50
2020,04,15,10,59,13.50
2020,04,15,11,00,13.40
2020,04,15,11,01,13.30
2020,04,15,11,02,13.10
2020,04,15,11,03,13.00
2020,04,15,11,04,12.80
2020,04,15,11,05,12.70
2020,04,15,11,06,12.60
2020,04,15,11,07,12.50
2020,04,15,11,08,12.40
2020,04,15,11,09,12.40
2020,04,15,11,10,12.30
2020,04,15,11,11,12.20
2020,04,15,11,12,12.20
2020,04,15,11,13,12.10
2020,04,15,11,14,12.00
2020,04,15,11,15,11.90
2020,04,15,11,16,11.80
2020,04,15,11,17,11.80
2020,04,15,11,18,11.70
2020,04,15,11,19,11.70
2020,04,15,11,20,11.70
2020,04,15,11,21,11.60
2020,04,15,11,22,11.50
2020,04,15,11,23,11.40
2020,04,15,11,24,11.30
2020,04,15,11,25,11.30
2020,04,15,11,26,11.20
2020,04,15,11,27,11.10
2020,04,15,11,28,11.10
2020,04,15,11,29,11.00
2020,04,15,11,30,11.00
2020,04,15,11,31,11.00
2020,04,15,11,32,11.00
2020,04,15,11,33,11.10
2020,04,15,11,34,11.10
2020,04,15,11,35,11.10
2020,04,15,11,36,11.10
2020,04,15,11,37,11.00
2020,04,15,11,38,11.00
2020,04,15,11,39,10.90
2020,04,15,11,40,10.90
2020,04,15,11,41,10.90
2020,04,15,11,42,10.90
2020,04,15,11,43,10.90
2020,04,15,11,44,10.90
2020,04,15,11,45,10.90
2020,04,15,11,46,10.90
2020,04,15,11,47,10.90
2020,04,15,11,48,10.90
2020,04,15,11,49,11.00
2020,04,15,11,50,11.00
2020,04,15,11,51,11.10
2020,04,15,11,52,11.10
2020,04,15,11,53,11.10
2020,04,15,11,54,11.10
2020,04,15,11,55,11.10
2020,04,15,11,56,11.10
2020,04,15,11,57,11.10
2020,04,15,11,58,11.10
2020,04,15,11,59,11.00
2020,04,15,12,00,11.00
2020,04,15,12,01,11.00
2020,04,15,12,02,11.10
2020,04,15,12,03,11.10
2020,04,15,12,04,11.10
2020,04,15,12,05,11.10
2020,04,15,12,06,11.10
2020,04,15,12,07,11.10
2020,04,15,12,08,11.10
2020,04,15,12,09,11.10
2020,04,15,12,10,11.10
2020,04,15,12,11,11.10
2020,04,15,12,12,11.10
2020,04,15,12,13,11.10
2020,04,15,12,14,11.10
2020,04,15,12,15,11.00
2020,04,15,12,16,11.00
2020,04,15,12,17,11.00
2020,04,15,12,18,11.00
2020,04,15,12,19,11.10
2020,04,15,12,20,11.20
2020,04,15,12,21,11.20
2020,04,15,12,22,11.20
2020,04,15,12,23,11.20
2020,04,15,12,24,11.20
2020,04,15,12,25,11.20
2020,04,15,12,26,11.20
2020,04,15,12,27,11.20
2020,04,15,12,28,11.30
2020,04,15,12,29,11.30
2020,04,15,12,30,11.40
2020,04,15,12,31,11.40
2020,04,15,12,32,11.60
2020,04,15,12,33,11.60
2020,04,15,12,34,11.60
2020,04,15,12,35,11.60
2020,04,15,12,36,11.50
2020,04,15,12,37,11.40
2020,04,15,12,38,11.40
2020,04,15,12,39,11.40
2020,04,15,12,40,11.40
2020,04,15,12,41,11.40
2020,04,15,12,42,11.40
2020,04,15,12,43,11.40
2020,04,15,12,44,11.40
2020,04,15,12,45,11.40
2020,04,15,12,46,11.40
2020,04,15,12,47,11.40
2020,04,15,12,48,11.40
2020,04,15,12,49,11.50
2020,04,15,12,50,11.50
2020,04,15,12,51,11.50
2020,04,15,12,52,11.50
2020,04,15,12,53,11.50
2020,04,15,12,54,11.50
2020,04,15,12,55,11.50
2020,04,15,12,56,11.50
2020,04,15,12,57,11.50
2020,04,15,12,58,11.40
2020,04,15,12,59,11.40
2020,04,15,13,00,11.40
2020,04,15,13,01,11.40
2020,04,15,13,02,11.40
2020,04,15,13,03,11.40
2020,04,15,13,04,11.40
2020,04,15,13,05,11.40
2020,04,15,13,06,11.40
2020,04,15,13,07,11.40
2020,04,15,13,08,11.40
2020,04,15,13,09,11.30
2020,04,15,13,10,11.30
2020,04,15,13,11,11.30
2020,04,15,13,12,11.30
2020,04,15,13,13,11.30
2020,04,15,13,14,11.40
2020,04,15,13,15,11.40
2020,04,15,13,16,11.40
2020,04,15,13,17,11.40
2020,04,15,13,18,11.50
2020,04,15,13,19,11.40
2020,04,15,13,20,11.40
2020,04,15,13,21,11.50
2020,04,15,13,22,11.50
2020,04,15,13,23,11.50
2020,04,15,13,24,11.50
2020,04,15,13,25,11.50
2020,04,15,13,26,11.60
2020,04,15,13,27,11.60
2020,04,15,13,28,11.60
2020,04,15,13,29,11.60
2020,04,15,13,30,11.60
2020,04,15,13,31,11.60
2020,04,15,13,32,11.70
2020,04,15,13,33,11.70
2020,04,15,13,34,11.70
2020,04,15,13,35,11.70
2020,04,15,13,36,11.70
2020,04,15,13,37,11.70
2020,04,15,13,38,11.70
2020,04,15,13,39,11.80
2020,04,15,13,40,11.80
2020,04,15,13,41,11.90
2020,04,15,13,42,11.90
2020,04,15,13,43,11.90
2020,04,15,13,44,12.00
2020,04,15,13,45,12.00
2020,04,15,13,46,12.10
2020,04,15,13,47,12.10
2020,04,15,13,48,12.10
2020,04,15,13,49,12.20
2020,04,15,13,50,12.30
2020,04,15,13,51,12.30
2020,04,15,13,52,12.30
2020,04,15,13,53,12.40
2020,04,15,13,54,12.40
2020,04,15,13,55,12.40
2020,04,15,13,56,12.40
2020,04,15,13,57,12.50
2020,04,15,13,58,12.50
2020,04,15,13,59,12.50
2020,04,15,14,00,12.60
2020,04,15,14,01,12.60
2020,04,15,14,02,12.60
2020,04,15,14,03,12.60
2020,04,15,14,04,12.60
2020,04,15,14,05,12.70
2020,04,15,14,06,12.70
2020,04,15,14,07,12.80
2020,04,15,14,08,12.80
2020,04,15,14,09,12.80
2020,04,15,14,10,12.80
2020,04,15,14,11,12.80
2020,04,15,14,12,12.80
2020,04,15,14,13,12.80
2020,04,15,14,14,12.80
2020,04,15,14,15,12.90
2020,04,15,14,16,12.90
2020,04,15,14,17,12.90
2020,04,15,14,18,12.90
2020,04,15,14,19,12.90
2020,04,15,14,20,13.00
2020,04,15,14,21,13.00
2020,04,15,14,22,13.10
2020,04,15,14,23,13.10
2020,04,15,14,24,13.10
2020,04,15,14,25,13.20
2020,04,15,14,26,13.20
2020,04,15,14,27,13.30
2020,04,15,14,28,13.30
2020,04,15,14,29,13.40
2020,04,15,14,30,13.40
2020,04,15,14,31,13.50
2020,04,15,14,32,13.50
2020,04,15,14,33,13.50
2020,04,15,14,34,13.60
2020,04,15,14,35,13.70
2020,04,15,14,36,13.70
2020,04,15,14,37,13.80
2020,04,15,14,38,13.90
2020,04,15,14,39,13.90
2020,04,15,14,40,13.90
2020,04,15,14,41,13.90
2020,04,15,14,42,14.00
2020,04,15,14,43,14.00
2020,04,15,14,44,13.90
2020,04,15,14,45,13.90
2020,04,15,14,46,13.90
2020,04,15,14,47,13.90
2020,04,15,14,48,13.90
2020,04,15,14,49,13.90
2020,04,15,14,50,13.90
2020,04,15,14,51,13.90
2020,04,15,14,52,13.90
2020,04,15,14,53,13.90
2020,04,15,14,54,13.90
2020,04,15,14,55,13.90
2020,04,15,14,56,13.90
2020,04,15,14,57,13.90
2020,04,15,14,58,13.90
2020,04,15,14,59,13.90
2020,04,15,15,00,13.90
2020,04,15,15,01,13.90
2020,04,15,15,02,13.90
2020,04,15,15,03,13.90
2020,04,15,15,04,14.00
2020,04,15,15,05,14.00
2020,04,15,15,06,14.00
2020,04,15,15,07,14.10
2020,04,15,15,08,14.10
2020,04,15,15,09,14.10
2020,04,15,15,10,14.20
2020,04,15,15,11,14.20
2020,04,15,15,12,14.30
2020,04,15,15,13,14.40
2020,04,15,15,14,14.40
2020,04,15,15,15,14.40
2020,04,15,15,16,14.40
2020,04,15,15,17,14.50
2020,04,15,15,18,14.60
2020,04,15,15,19,14.70
2020,04,15,15,20,14.80
2020,04,15,15,21,14.80
2020,04,15,15,22,14.90
2020,04,15,15,23,14.90
2020,04,15,15,24,15.00
2020,04,15,15,25,15.00
2020,04,15,15,26,15.00
2020,04,15,15,27,14.90
2020,04,15,15,28,14.90
2020,04,15,15,29,14.90
2020,04,15,15,30,14.90
2020,04,15,15,31,14.80
2020,04,15,15,32,14.80
2020,04,15,15,33,14.70
2020,04,15,15,34,14.70
2020,04,15,15,35,14.60
2020,04,15,15,36,14.60
2020,04,15,15,37,14.50
2020,04,15,15,38,14.50
2020,04,15,15,39,14.40
2020,04,15,15,40,14.40
2020,04,15,15,41,14.30
2020,04,15,15,42,14.30
2020,04,15,15,43,14.30
2020,04,15,15,44,14.30
2020,04,15,15,45,14.40
2020,04,15,15,46,14.40
2020,04,15,15,47,14.50
2020,04,15,15,48,14.50
2020,04,15,15,49,14.60
2020,04,15,15,50,14.60
2020,04,15,15,51,14.70
2020,04,15,15,52,14.70
2020,04,15,15,53,14.70
2020,04,15,15,54,14.80
2020,04,15,15,55,14.80
2020,04,15,15,56,14.80
2020,04,15,15,57,14.90
2020,04,15,15,58,14.90
2020,04,15,15,59,14.90
2020,04,15,16,00,14.90
2020,04,15,16,01,14.90
2020,04,15,16,02,14.90
2020,04,15,16,03,15.00
2020,04,15,16,04,15.10
2020,04,15,16,05,15.10
2020,04,15,16,06,15.20
2020,04,15,16,07,15.20
2020,04,15,16,08,15.20
2020,04,15,16,09,15.30
2020,04,15,16,10,15.30
2020,04,15,16,11,15.30
2020,04,15,16,12,15.40
2020,04,15,16,13,15.40
2020,04,15,16,14,15.40
2020,04,15,16,15,15.40
2020,04,15,16,16,15.50
2020,04,15,16,17,15.50
2020,04,15,16,18,15.50
2020,04,15,16,19,15.50
2020,04,15,16,20,15.60
2020,04,15,16,21,15.60
2020,04,15,16,22,15.60
2020,04,15,16,23,15.60
2020,04,15,16,24,15.50
2020,04,15,16,25,15.50
2020,04,15,16,26,15.40
2020,04,15,16,27,15.40
2020,04,15,16,28,15.40
2020,04,15,16,29,15.40
2020,04,15,16,30,15.50
2020,04,15,16,31,15.50
2020,04,15,16,32,15.50
2020,04,15,16,33,15.50
2020,04,15,16,34,15.40
2020,04,15,16,35,15.40
2020,04,15,16,36,15.40
2020,04,15,16,37,15.40
2020,04,15,16,38,15.40
2020,04,15,16,39,15.40
2020,04,15,16,40,15.40
2020,04,15,16,41,15.40
2020,04,15,16,42,15.40
2020,04,15,16,43,15.40
2020,04,15,16,44,15.40
2020,04,15,16,45,15.40
2020,04,15,16,46,15.40
2020,04,15,16,47,15.40
2020,04,15,16,48,15.50
2020,04,15,16,49,15.60
2020,04,15,16,50,15.60
2020,04,15,16,51,15.70
2020,04,15,16,52,15.80
2020,04,15,16,53,15.90
2020,04,15,16,54,15.90
2020,04,15,16,55,16.00
2020,04,15,16,56,16.10
2020,04,15,16,57,16.30
2020,04,15,16,58,16.50
2020,04,15,16,59,16.50
2020,04,15,17,00,16.70
2020,04,15,17,01,16.80
2020,04,15,17,02,16.90
2020,04,15,17,03,16.90
2020,04,15,17,04,17.00
2020,04,15,17,05,17.00
2020,04,15,17,06,17.00
2020,04,15,17,07,17.10
2020,04,15,17,08,17.10
2020,04,15,17,09,17.10
2020,04,15,17,10,17.10
2020,04,15,17,11,17.00
2020,04,15,17,12,17.00
2020,04,15,17,13,17.00
2020,04,15,17,14,17.10
2020,04,15,17,15,17.10
2020,04,15,17,16,17.10
2020,04,15,17,17,17.10
2020,04,15,17,18,17.20
2020,04,15,17,19,17.20
2020,04,15,17,20,17.20
2020,04,15,17,21,17.20
2020,04,15,17,22,17.20
2020,04,15,17,23,17.20
2020,04,15,17,24,17.20
2020,04,15,17,25,17.30
2020,04,15,17,26,17.40
2020,04,15,17,27,17.50
2020,04,15,17,28,17.50
2020,04,15,17,29,17.50
2020,04,15,17,30,17.50
2020,04,15,17,31,17.50
2020,04,15,17,32,17.40
2020,04,15,17,33,17.30
2020,04,15,17,34,17.20
2020,04,15,17,35,17.10
2020,04,15,17,36,16.90
2020,04,15,17,37,16.80
2020,04,15,17,38,16.70
2020,04,15,17,39,16.70
2020,04,15,17,40,16.60
2020,04,15,17,41,16.60
2020,04,15,17,42,16.60
2020,04,15,17,43,16.50
2020,04,15,17,44,16.50
2020,04,15,17,45,16.50
2020,04,15,17,46,16.40
2020,04,15,17,47,16.40
2020,04,15,17,48,16.40
2020,04,15,17,49,16.30
2020,04,15,17,50,16.30
2020,04,15,17,51,16.30
2020,04,15,17,52,16.30
2020,04,15,17,53,16.30
2020,04,15,17,54,16.40
2020,04,15,17,55,16.40
2020,04,15,17,56,16.40
2020,04,15,17,57,16.40
2020,04,15,17,58,16.50
2020,04,15,17,59,16.60
2020,04,15,18,00,16.60
2020,04,15,18,01,16.70
2020,04,15,18,02,16.80
2020,04,15,18,03,16.80
2020,04,15,18,04,16.90
2020,04,15,18,05,17.00
2020,04,15,18,06,17.00
2020,04,15,18,07,17.20
2020,04,15,18,08,17.30
2020,04,15,18,09,17.40
2020,04,15,18,10,17.50
2020,04,15,18,11,17.70
2020,04,15,18,12,17.90
2020,04,15,18,13,17.90
2020,04,15,18,14,18.10
2020,04,15,18,15,18.10
2020,04,15,18,16,18.20
2020,04,15,18,17,18.40
2020,04,15,18,18,18.50
2020,04,15,18,19,18.60
2020,04,15,18,20,18.60
2020,04,15,18,21,18.60
2020,04,15,18,22,18.60
2020,04,15,18,23,18.40
2020,04,15,18,24,18.40
2020,04,15,18,25,18.40
2020,04,15,18,26,17.80
2020,04,15,18,27,17.50
2020,04,15,18,28,17.30
2020,04,15,18,29,17.20
2020,04,15,18,30,17.10
2020,04,15,18,31,17.10
2020,04,15,18,32,17.00
2020,04,15,18,33,17.00
2020,04,15,18,34,17.00
2020,04,15,18,35,17.10
2020,04,15,18,36,17.10
2020,04,15,18,37,17.20
2020,04,15,18,38,17.20
2020,04,15,18,39,17.30
2020,04,15,18,40,17.30
2020,04,15,18,41,17.30
2020,04,15,18,42,17.40
2020,04,15,18,43,17.40
2020,04,15,18,44,17.40
2020,04,15,18,45,17.50
2020,04,15,18,46,17.50
2020,04,15,18,47,17.60
2020,04,15,18,48,17.60
2020,04,15,18,49,17.70
2020,04,15,18,50,17.90
2020,04,15,18,51,17.90
2020,04,15,18,52,17.90
2020,04,15,18,53,18.00
2020,04,15,18,54,18.10
2020,04,15,18,55,18.10
2020,04,15,18,56,18.10
2020,04,15,18,57,18.10
2020,04,15,18,58,18.10
2020,04,15,18,59,18.10
2020,04,15,19,00,18.10
2020,04,15,19,01,18.20
2020,04,15,19,02,18.20
2020,04,15,19,03,18.30
2020,04,15,19,04,18.30
2020,04,15,19,05,18.40
2020,04,15,19,06,18.40